Погода Шахунья

Погода Шахунья : погода сейчас, прогноз погоды и архив. Всё, что Вы хотите узнать о погоде Шахунья!

Поиск расширенной информации на нашем сайте:

Другие новости

Новости СМИ2

Главная страница сайта

Новости сайта

03.07.2017

Напоминаем, что на нашем специализированном сайте Метеоцентр.Азия вы можете получить высокодетализированные автоматические прогнозы погоды по пунктам России, СНГ и мира в авиационном формате (включающие направление и скорость ветра, видимость, явления погоды, количество и форму облачности, нижнюю и верхнюю границу облачности).


Погода Шахунья - сегодня

Время (UTC), дата Ветер
(°,м/с) 
Видим.   Явления Облачность Т
(°С)
Тd
(°С)
f(%) Тe
(°С)
Pmin
(гПа)
dP
(гПа)
Po
(мм)
O2
(г/м3)
Тmin Tmax R s Состояние
почвы
15 10.12.17 140 (ЮВ) 5-7{08}  4000 м    10/0 средняя 
[Ac As]
-6.2 -7.7 89 -10  1022.5  0.4  750  310    -6.1  0.3     
18 10.12.17 140 (ЮВ) 5-7{09}  4000 м    10/0 средняя 
[Ac As]
-6.8 -8 91 -11  1022.5  750  311           
21 10.12.17 140 (ЮВ) 4-6{07}  4000 м    10/8 300 м средняя 
[Sc|Ac As]
-7 -8.3 90 -11  1022.8  0.3  750  311           
00 11.12.17 130 (ЮВ) 5-7{08}  4000 м    10/10 300 м 
[St]
-7.9 -8.9 93 -12  1022.5  -0.4  750  312           
03 11.12.17 130 (ЮВ) 4-7{10}  4000 м    10/10 300 м 
[St]
-7.7 -9.1 90 -11  1022.4  -0.1  750  312  -8.6      равномерный
сухой снег
100% 
06 11.12.17 150 (ЮВ) 6-9{10}  20000 м    10/10 200 м 
[St]
-6.5 -7.3 94 -11  1022.1  -0.2  750  310           
09 11.12.17 150 (ЮВ) 6-9{09}  10 км  слаб. снег  10/10 200 м 
[Frnb|Ns]
-5.2 -6.9 88 -10  1021.9  -0.1  749  309           
12 11.12.17 140 (ЮВ) 6-8{10}  20000 м  {снег}  10/6 300 м средняя 
[Sc|Ac As]
-4.7 -6 91 -9  1021.1  -0.7  749  308           
15 11.12.17 150 (ЮВ) 6-10{10}  4000 м    10/10 200 м 
[St]
-5.3 -6.7 90 -10  1021  -0.2  749  308    -4.6  0.6     
18 11.12.17 130 (ЮВ) 5-8{10}  4000 м    10/10 200 м 
[St]
-5.2 -6.2 93 -9  1020.5  -0.5  748  308           
21 11.12.17 140 (ЮВ) 6-8{09}  4000 м  слаб. снег  10/10 200 м 
[Frnb|Ns]
-4.6 -5.9 91 -9  1020  -0.4  748  307           
00 12.12.17 130 (ЮВ) 5-7{09}  4000 м  {снег}  10/10 200 м 
[St]
-3.7 -4.8 92 -7  1019.6  -0.2  748  306           
03 12.12.17 140 (ЮВ) 5-7{08}  4000 м  слаб. снег  10/10 200 м 
[Frnb|Ns]
-3.3 -4.4 92 -7  1020  0.3  748  306  -5.5    равномерный
сухой снег
100% 
06 12.12.17 140 (ЮВ) 4-7{08}  20000 м  слаб. снег  10/10 200 м 
[St]
-2.8 -3.8 93 -6  1021.1  1.2  749  305           
09 12.12.17 150 (ЮВ) 5-7{08}  20000 м  {снег}  10/10 200 м 
[St]
-2.3 -3.5 91 -6  1021.8  0.7  750  305           
12 12.12.17 140 (ЮВ) 4-5{08}  20000 м  {снег}  10/10 200 м 
[St]
-2 -3.2 91 -5  1022.6  0.8  750  305           
15 12.12.17 130 (ЮВ) 5-6{08}  4000 м    10/10 300 м 
[St]
-2.4 -4 89 -6  1023.2  0.6  751  306    -1.9  0.2     
18 12.12.17 120 (ЮВ) 4-7{07}  4000 м    10/10 300 м 
[St]
-3 -4.7 88 -6  1022.5  -0.8  750  306           
21 12.12.17 140 (ЮВ) 4-7{08}  4000 м    10/10 300 м 
[St]
-3.1 -4.5 90 -6  1022.2  -0.3  750  306           
00 13.12.17 140 (ЮВ) 5-7{08}  4000 м    10/10 200 м 
[St]
-3.1 -4.1 93 -7  1021.1  -1.1  749  306           
03 13.12.17 150 (ЮВ) 6-8{09}  4000 м  слаб. снег  10/10 200 м 
[St]
-2.7 -4 91 -7  1019.8  -1.2  748  305  -3.3    0.0  равномерный
сухой снег
100% 
06 13.12.17 150 (ЮВ) 7-10{12}  20000 м  позёмок{снег}  10/10 200 м 
[St]
-1.8 -3.2 90 -6  1017.9  -1.8  747  303           
09 13.12.17 150 (ЮВ) 7-11{13}  4000 м  слаб. снег  10/10 200 м 
[Frnb|Ns]
-1.6 -2.7 92 -6  1016.7  -1.2  746  303           
12 13.12.17 160 (Ю) 7-12{13}  10 км  слаб. снег  10/10 200 м 
[Frnb|Ns]
-1.7 -3.1 90 -6  1015.1  -1.6  745  302           
15 13.12.17 170 (Ю) 6-8{12}  4000 м  слаб. переохл. морось (гололёд){снег} [диам. гололёда 0 мм]  10/10 200 м 
[St]
-1.2 -1.9 95 -5  1013.9  -1  744  301    -1.2     
Время (UTC), дата Ветер
(°,м/с) 
Видим.   Явления Облачность Т
(°С)
Тd
(°С)
f(%) Тe
(°С)
Pmin
(гПа)
dP
(гПа)
Po
(мм)
O2
(г/м3)
Тmin Tmax R s Состояние
почвы

Для получения пояснительной информации подведите курсор к названию столбца.

ПОГОДА Шахунья - архив

Всё, что Вы хотите узнать о погоде Шахунья - удобно и подробно!

Выберите нужную дату (начиная с 1 января 2015* года) и нажмите кнопку "Найти".
Будут отображены архивные сводки погоды по пункту Шахунья, начиная с указанной даты.


Отображать данные в формате CSV (для использования в таблицах Excel)


Внимание! Наш архив погоды предназначен исключительно для личного некоммерческого использования в познавательных целях. Если Вам необходимы официальные справки о состоянии погоды (для производственных, юридических, коммерческих и т.п. целей), обращайтесь в органы Росгидромета.

*Примечание: данная дата относится к архиву по метеостанциям СССР (Россия, СНГ, Балтия).
Архив по метеостанциям Зарубежной Европы и Азии (кроме Китая) хранится 10 дней, по другим регионам земного шара (Китай, Африка, Америка, Австралия, Океания) - 1 день.

Шахунья - район местоположения метеостанции


Название, широта, долгота, высота метеостанции:
Шахунья 57.7°ш. 46.6°д. 175 м над ур. моря [Российская Федерация]

Дополнительная информация

В oтличие oт бoльшинства пoгoдных сайтoв мы публикуем пoдрoбную метеoинфoрмацию в детальнoм прoфессиoнальнoм фoрмате.

Характеристики температуры и влажнoсти вoздуха измеряются на высoте 2 м в тени вдали oт зданий и деревьев.
Скoрoсть ветра измеряется на высoте 10 м (на урoвне рoста челoвека скoрoсть ветра ниже в 1.5-2 раза). Если метеoстанция нахoдится в гoрoде или в лесу, тo скoрoсть ветра занижена на 2-4 м/с пo сравнению с oткрытым местoм. Скoрoсть ветра над акватoриями крупных рек и oзёр, а также на вершинах хoлмoв на 2-5 м/с выше, чем в oбычных услoвиях.
Атмoсфернoе давление в разных тoчках местнoсти мoжет значительнo oтличаться oт давления на метеoстанции, в зависимoсти oт услoвий рельефа (при пoдъёме на 10 м давление пoнижается примернo на 1 мм рт.ст.).